Other Surface Observations
Issued by NWS Charleston, SC

Home | Current Version | Previous Version | Text Only | Print | Product List | Glossary On
Versions: 1 2 3 4 5 6 7 8 9 10 11 12 13 14 15 16 17 18 19 20 21 22 23 24 25 26 27 28 29 30 31 32 33 34 35 36 37 38 39 40 41 42 43 44 45 46 47 48 49 50
000
SXUS52 KCHS 012127
OSOCHS

MARINE OBSERVATIONS
NATIONAL WEATHER SERVICE CHARLESTON SC
500 PM EDT WED JUL 01 2015

...DOWNTOWN CHARLESTON AND HARBOR...

CITY           SKY/WX    TMP DP  RH WIND       PRES   REMARKS
WATERFRONT PRK   N/A     87  72  60 W7        29.96S HX  93
FORT JOHNSON   NOT AVBL

...LAKE MOULTRIE...

CITY           SKY/WX    TMP DP  RH WIND       PRES   REMARKS
PINOPOLIS      NOT AVBL

...LAKE AND SUPPLEMENTAL COASTAL OBSERVATIONS...

STATION/POSITION TIME  TEMP    WIND        PRES    WAVE   SWELL
                       AIR SEA DIR/SP/G            HT/PER HT/PER/DIR
                 (UTC) (F)     (DEG/KT/KT) (MB)    (FT/S) (FT/S/D)
FORT PULASKI     2100   89 84  240/  7/ 11 1016.1F
SAPELO ISLAND    2100   90     240/ 15     1016.0S
UPR LAKE MARION  NOT AVBL
WINYAH BAY       2045   85     260/  8     1014.0S
LAKE MURRAY      2100   85     230/  8/ 11 1013.9F
ACE BASIN NERRS  2000   86     150/  4     1016.0S


...C-MAN AND BUOY OBSERVATIONS...

STATION/POSITION TIME  TEMP    WIND        PRES    WAVE   SWELL
                       AIR SEA DIR/SP/G            HT/PER HT/PER/DIR
                 (UTC) (F)     (DEG/KT/KT) (MB)    (FT/S) (FT/S/D)
BUOY 41004       2050   80 82  230/ 17/ 21 1015.1F   5/ 6   2/ 8
BUOY 41008       2050   81 79  210/ 12/ 14 1016.1F   2/ 8   2/110/ 8
FOLLY BEACH CMAN 2100   85     230/  9/ 12 1015.3F
CAPERS NS BUOY   2008   82     220/ 16/ 19 1015.7F
FRIPP NS BUOY    2000   86     260/ 12/ 14 1015.9F
5E ST. MARYS GA  2021      78                N/A     2/ 9


STATION/POSITION TIME  TEMP    WIND        PRES    WAVE   SWELL
                       AIR SEA DIR/SP/G            HT/PER HT/PER/DIR
                 (UTC) (F)     (DEG/KT/KT) (MB)    (FT/S) (FT/S/D)
FRYING PAN BUOY  2050   80 80  220/ 16/ 19 1015.0F   5/ 6   2/120/ 8
BUOY 41025       2050   80 83  230/ 19/ 21 1013.6F   5/ 8   2/200/ 8
CAPE LOOKOUT NC  2100   81     210/ 11/ 15 1013.5F
BUOY 41002       2050   82 80  220/ 17/ 19 1018.2F   6/ 8   3/190/12
BUOY 41010       2020   83 85  240/ 10/ 12 1020.1F
ST AUGUSTINE FL  2100   87 75  240/  9/ 11 1018.7F

$$



USA.gov is the U.S. government's official web portal to all federal, state and local government web resources and services.